Location: Windsor
(43.2292°N, 89.3015°W)
Time: 02:19:57
(UTC+00:00)

RS-44 - Visible Passes

Search period start: 28 June 2022 00:00
Search period end: 08 July 2022 00:00
Orbit: 1175 x 1509 km, 82.5° (Epoch: 27 June)

Date Brightness Start Highest point End Pass type
(mag) Time Alt. Az. Time Alt. Az. Time Alt. Az.
28 Jun ? 03:22:08 10° SSW 03:29:59 57° WNW 03:38:29 10° N visible
28 Jun ? 05:23:01 10° WNW 05:25:47 12° NW 05:28:37 10° NNW visible
29 Jun ? 03:46:44 10° SW 03:54:08 38° WNW 04:02:03 10° N visible
30 Jun ? 02:16:04 10° S 02:24:05 74° E 02:32:44 10° NNE visible
30 Jun ? 04:11:56 10° WSW 04:18:28 26° WNW 04:25:23 10° N visible
01 Jul ? 02:39:46 10° SSW 02:47:52 76° W 02:56:37 10° N visible
01 Jul ? 04:38:01 10° W 04:43:04 17° WNW 04:48:17 10° NNW visible
02 Jul ? 03:03:58 10° SSW 03:11:52 51° WNW 03:20:20 10° N visible
02 Jul ? 05:06:20 10° WNW 05:07:53 10° NW 05:09:27 10° NW visible
03 Jul ? 03:28:42 10° SW 03:36:04 35° WNW 03:43:53 10° N visible
04 Jul ? 03:54:07 10° WSW 04:00:28 23° WNW 04:07:08 10° NNW visible
05 Jul ? 02:21:31 10° SSW 02:29:43 69° W 02:38:31 10° N visible
05 Jul ? 04:20:30 10° W 04:25:07 15° NW 04:29:51 10° NNW visible
06 Jul ? 02:45:51 10° SW 02:53:46 47° WNW 03:02:12 10° N visible
07 Jul ? 03:10:46 10° SW 03:18:01 32° WNW 03:25:40 10° N visible
